Location: Kitchener-Waterloo
(43.4500°N, 80.5000°W)
Time: 08:20:18
(UTC-05:00)

Daily predictions for brighter satellites

Satellite Brightness Start Highest point End
(mag) Time Altitude Azimuth Time Altitude Azimuth Time Altitude Azimuth
Meteor 2-12 Rocket 4.5 17:10:35 10° S 17:16:35 65° E 17:22:35 10° NNE
EO 1 Delta rocket 4.4 17:13:24 10° S 17:17:59 67° W 17:23:08 10° NNW
MSX 4.0 17:12:26 10° SSE 17:18:13 87° WSW 17:24:02 10° NNW
YAOGAN 1 3.7 17:16:07 10° ESE 17:19:31 23° ENE 17:22:57 10° NNE
CSL-04 Debris 4.3 17:16:56 10° SSE 17:22:13 56° ENE 17:27:30 10° N
COSMOS 2441 4.5 17:19:41 10° SSE 17:24:34 89° W 17:29:31 10° NNW
BREEZE-M DEB (TANK) 3.7 17:26:26 10° S 17:27:56 17° SE 17:29:41 10° E
Cosmos 1833 Rocket 3.3 17:23:01 10° N 17:28:05 33° NE 17:33:07 10° ESE
Tsikada Rocket 4.0 17:24:05 10° N 17:30:16 88° ENE 17:36:28 10° S
USA 161 3.1 17:32:34 10° NNW 17:34:16 24° WNW 17:36:03 10° SW
Meteor 1-14 Rocket 4.2 17:28:42 10° N 17:34:20 62° ENE 17:39:50 10° SSE
Cosmos 1844 4.3 17:29:56 10° SW 17:35:39 62° WNW 17:41:26 10° NNE
Cosmos 972 Rocket 4.5 17:34:26 10° NNW 17:39:17 62° WSW 17:44:09 10° S
Cosmos 2278 Rocket 2.2 17:34:01 10° SSW 17:39:40 73° ESE 17:45:20 10° NNE
Cosmos 1703 Rocket 4.1 17:36:06 10° SSE 17:40:12 37° E 17:44:18 10° NNE
CORIOLIS 4.2 17:36:07 10° SSE 17:41:29 63° ENE 17:46:52 10° N
CZ-2C R/B 3.8 17:37:34 10° S 17:42:21 45° W 17:47:17 10° NNW
Cosmos 1763 Rocket 3.7 17:43:48 10° NNW 17:49:00 76° WSW 17:54:07 10° SSE
Meteor 1-26 Rocket 4.2 17:44:13 10° S 17:49:47 87° W 17:55:21 10° N
IRS-1A Rocket 4.3 17:45:21 10° SSE 17:51:04 63° ENE 17:56:41 10° N
Meteor 1-28 Rocket 3.1 17:49:28 10° NNE 17:53:09 61° E 17:56:49 10° S
Cosmos 44 Rocket 3.9 17:49:19 10° NNW 17:53:47 35° NE 17:58:18 10° ESE
CZ-2C R/B 3.7 17:50:15 10° NNE 17:54:42 58° ESE 17:59:11 10° S
Okean 2 Rocket 3.9 17:51:48 10° NNE 17:55:49 30° ENE 17:59:47 10° SE
Cosmos 304 Rocket 4.4 17:53:21 10° NNW 17:58:07 62° WSW 18:02:49 10° S
Cosmos 972 4.5 17:53:27 10° NNW 17:58:29 81° WSW 18:03:21 10° SSE
Cosmos 1606 2.8 17:57:08 10° S 18:00:47 51° E 18:04:28 10° NNE
Cosmos 292 Rocket 4.3 17:57:04 10° N 18:01:24 34° ENE 18:05:43 10° SE
Cosmos 405 4.1 18:00:42 10° NNE 18:03:40 24° ENE 18:06:37 10° SE
Cosmos 1908 Rocket 3.5 17:59:52 10° N 18:04:14 85° W 18:08:33 10° S
Cosmos 1464 Rocket 4.2 17:59:06 10° SSE 18:04:54 47° E 18:10:46 10° NNE
Lacrosse 5 3.7 18:01:41 10° NW 18:05:14 19° N 18:08:26 11° NNE
Landsat 4 3.7 18:01:40 10° NNE 18:05:26 59° ESE 18:09:11 10° S
SKYMED 2 3.9 18:02:30 10° NNE 18:06:39 42° E 18:10:45 10° S
COSMOS 2455 3.7 18:01:37 10° SW 18:07:24 48° NW 18:13:15 10° NNE
Cosmos 1484 Rocket 3.6 18:04:08 10° S 18:07:54 53° W 18:11:47 10° NNW
CZ-4 R/B 1.5 18:05:44 10° S 18:09:34 74° WSW 18:13:26 10° NNW
MTI 3.9 18:07:22 16° NNE 18:09:47 52° E 18:12:56 10° S
SL-27 R/B 2.5 18:07:10 10° NNW 18:10:31 71° WSW 18:13:50 10° SSE
EO 1 Del DPAF 3.6 18:08:14 15° NNE 18:11:05 41° E 18:14:42 10° S
MOS 1 4.3 18:06:35 10° SSE 18:12:11 61° ENE 18:17:49 10° N
Cosmos 540 Rocket 3.4 18:07:28 10° NNW 18:12:39 69° ENE 18:17:46 10° SSE
METEOR-M 4.0 18:09:51 10° SSE 18:15:09 72° ENE 18:20:29 10° N
USA 234 3.8 18:11:19 20° ENE 18:15:27 40° SE 18:21:30 10° SSW
MONITOR-E 4.2 18:13:20 10° SSE 18:16:17 48° ENE 18:19:15 10° N
CZ-4 R/B 4.3 18:12:13 10° SSE 18:16:23 82° ENE 18:20:34 10° N
Cosmos 44 3.3 18:13:20 10° NNW 18:17:56 57° NE 18:22:41 11° SE
Cosmos 968 Rocket 4.4 18:14:15 10° SSE 18:18:34 27° E 18:19:34 26° E
Cosmos 2082 Rocket 2.1 18:12:52 10° NNW 18:18:36 76° ENE 18:24:14 10° SSE
Cosmos 1503 Rocket 3.9 18:13:43 10° S 18:18:57 69° ESE 18:23:43 12° NNE
Ariane Rocket 4.2 18:15:55 10° S 18:20:45 45° W 18:25:38 10° NNW
Meteor 2-6 Rocket 4.1 18:17:42 10° S 18:23:04 64° E 18:28:36 10° NNE
Sich 1 Rocket 4.1 18:21:29 10° NNW 18:25:52 61° W 18:30:15 10° S
BREEZE-M DEB (TANK) 2.8 18:24:51 10° NW 18:27:06 36° NNE 18:27:37 33° NE
ERS-2 2.1 18:23:27 10° SSE 18:27:07 84° WSW 18:30:50 10° NNW
Cosmos 1602 3.8 18:23:37 10° N 18:27:24 51° E 18:31:08 10° SSE
Okean 1-7 3.0 18:24:18 10° S 18:28:40 87° ESE 18:33:07 10° N
Cosmos 836 Rocket 4.5 18:24:11 10° NNW 18:29:28 88° WSW 18:34:45 10° SSE
ALOS 2.2 18:28:12 10° SSE 18:32:48 63° ENE 18:37:27 10° N
Cosmos 1782 3.3 18:30:36 10° SSW 18:34:34 62° W 18:38:34 10° N
Cosmos 405 Rocket 2.5 18:31:53 10° S 18:35:38 64° E 18:36:33 45° NE
FengYun 1-2 T 4.5 18:39:44 17° SE 18:43:36 44° ENE 18:48:53 10° N
Cosmos 1633 4.1 18:42:14 10° NNW 18:45:40 38° W 18:49:05 10° SSW
Cosmos 1513 Rocket 4.4 18:40:18 10° S 18:46:36 88° E 18:52:51 10° N
CZ-4C R/B 2.8 18:46:06 10° NNW 18:53:12 68° NE 18:58:04 25° SE
COSMO-SKYMED 1 3.1 18:50:32 10° N 18:54:45 58° WNW 18:59:00 10° SSW
Meteor 1-5 Rocket 4.1 18:49:39 10° N 18:54:41 50° ENE 18:54:41 50° ENE
YAOGAN 1 4.3 18:51:30 10° SSW 18:55:27 34° W 18:59:25 10° NNW
Meteor 1-27 Rocket 3.7 18:49:47 10° S 18:55:41 78° E 19:01:39 10° NNE
CENTAUR R/B 4.3 18:51:40 10° W 18:56:53 25° NNW 19:01:56 12° NNE
FENGYUN 3A 3.7 18:52:19 10° S 18:57:44 81° WSW 19:03:10 10° NNW
Cosmos 783 Rocket 4.4 18:55:03 10° NNW 19:00:25 88° ENE 19:05:35 11° SSE
SPOT 3 Rocket 4.1 18:58:42 10° S 19:03:50 60° WSW 19:09:00 10° NNW
USA 229 DEB 4.0 18:59:01 10° S 19:05:14 42° ESE 19:05:14 42° ESE
USA 229 4.0 18:59:09 10° S 19:05:17 42° ESE 19:05:17 42° ESE
Cosmos 1833 Rocket 4.0 19:06:51 10° NW 19:12:04 40° WSW 19:17:15 10° S
Nadezhda 4 Rocket 3.9 19:08:45 10° N 19:14:54 85° W 19:21:01 10° S
Cosmos 2369 Rocket 4.1 19:10:25 10° SSE 19:11:27 15° SSE 19:11:27 15° SSE
Cosmos 2151 Rocket 4.5 19:16:30 10° NNW 19:27:14 - S 19:19:30 42° NNW
Cosmos 2034 Rocket 4.5 19:16:24 10° SSW 19:22:41 60° WNW 19:28:58 10° N
Cosmos 2278 Rocket 4.4 19:20:10 10° W 19:24:20 21° NW 19:28:32 10° N
Timation 2 Rocket 4.1 19:21:31 10° NNW 19:28:19 79° WSW 19:31:12 36° SSE
Cosmos 1092 Rocket 3.8 19:26:49 10° N 19:32:59 88° W 19:39:11 10° S
Thor Agena Rocket 4.4 19:36:30 41° SSW 19:36:30 41° SSW 19:39:47 10° SSW
Lacrosse 5 4.1 19:46:08 10° NW 19:47:38 15° NNW 19:47:38 15° NNW
USA 234 3.4 19:58:40 66° NW 19:58:40 66° NW 20:05:08 10° WSW
CZ-4C R/B 4.3 20:35:14 10° NW 20:41:33 31° WSW 20:43:23 28° SW
